SCP
0 0 0 0 0 0 0 0 0 0 0 0 0 0 0 0 0 1 1 1 1 1 1 1 1 1 1 2 2 2 2 1 1 1 1 1 0 0 0 0 0 0 0 0
0 0 0 -0 -0 0 0 0 0 0 0 0 0 0 0 0 0 1 1 1 1 1 1 1 1 1 1 1 1 1 1 1 1 1 1 1 0 0 0 0 0 0 0 0
-0 -0 -0 -0 -0 0 0 0 0 0 0 0 0 0 0 0 0 0 1 1 1 1 1 1 1 1 1 1 1 1 1 1 1 1 1 0 0 0 0 0 0 0 0 0
-0 -0 -0 -0 -0 0 0 0 0 0 0 0 0 0 0 0 0 0 0 1 1 1 1 1 1 1 1 1 1 1 1 1 1 1 0 0 0 0 0 0 0 0 0 0
-0 0 0 0 0 0 0 0 0 0 0 0 0 0 0 0 0 0 0 0 1 1 1 1 1 1 1 1 1 1 1 1 1 1 0 0 0 0 0 0 0 0 0 0
0 0 0 0 0 0 0 0 0 0 0 0 0 0 0 0 0 0 0 0 0 0 1 1 1 1 1 1 1 1 1 1 1 0 0 0 0 0 0 0 0 0 0 0
0 0 0 0 0 0 0 0 0 0 0 0 0 0 0 0 0 0 0 0 0 0 1 1 1 1 1 1 1 1 1 1 1 0 0 0 0 0 0 0 0 0 0 0
0 0 0 0 0 0 0 0 0 0 0 0 0 0 0 0 0 0 0 0 0 0 0 1 1 1 1 1 1 1 1 1 1 0 0 0 0 0 0 0 0 0 0 0
0 0 0 0 0 0 0 0 0 0 0 0 0 0 0 0 0 0 0 0 0 0 0 1 1 1 1 1 1 1 1 1 1 1 1 1 1 0 0 0 0 0 0 0
0 0 0 0 0 0 0 0 0 0 0 0 0 0 0 0 0 0 0 0 0 0 0 0 1 1 1 1 1 1 1 1 1 1 1 1 1 1 1 1 0 0 0 0
0 0 0 0 0 0 0 0 0 0 0 0 0 0 0 0 0 0 0 0 0 0 0 0 1 1 1 1 1 1 1 1 1 1 1 1 1 1 1 1 1 1 1 1
0 0 0 0 0 0 0 0 0 0 0 0 0 0 0 0 0 0 0 0 0 0 0 0 1 1 1 1 1 1 1 1 1 1 1 1 1 1 1 1 1 1 1 1
0 0 0 0 0 0 0 0 0 0 0 0 0 0 0 0 0 0 0 0 0 0 1 1 1 1 1 1 1 1 1 1 1 1 1 1 1 1 1 1 1 1 1 1
0 0 0 0 0 0 0 0 0 0 0 0 0 0 0 0 0 0 0 0 1 1 1 1 1 1 1 1 1 1 1 1 1 1 1 2 2 2 2 2 2 2 1 1
0 0 0 0 0 0 0 0 0 0 0 0 0 0 0 1 0 0 0 1 1 1 1 1 1 2 2 2 2 1 1 1 2 2 2 2 2 2 2 2 2 2 2 1
0 0 0 0 0 0 0 0 0 0 0 0 0 0 1 1 1 1 1 1 1 1 1 1 2 2 2 2 2 2 2 2 2 2 2 3 3 3 2 2 2 2 2 2
1 1 0 0 0 0 0 0 0 0 0 0 0 1 1 1 1 1 1 1 1 1 1 2 2 2 2 2 2 2 2 2 2 3 3 3 3 3 2 2 2 2 2 2
1 1 1 0 0 0 0 0 0 0 0 0 1 1 1 1 1 1 1 1 1 1 1 2 2 2 2 2 2 2 2 2 2 3 3 3 3 2 2 2 2 2 2 2
1 1 1 0 0 0 0 0 0 0 0 1 1 1 1 1 1 1 1 1 1 1 1 1 2 2 2 2 2 2 2 2 2 2 2 2 2 2 2 2 2 2 2 2
1 1 1 0 0 0 0 0 0 0 0 1 1 1 1 1 1 1 1 1 1 1 1 1 1 1 2 2 2 1 1 1 1 1 1 1 1 1 2 2 2 2 2 2
0 1 1 0 0 0 0 0 0 0 1 1 1 1 1 1 1 1 1 1 1 1 1 1 1 1 1 1 1 1 1 1 1 1 1 1 1 1 1 1 1 1 1 1
0 1 1 1 1 1 1 0 0 1 1 1 1 1 1 1 1 1 1 1 1 1 1 1 1 1 1 1 1 1 1 1 1 1 1 1 1 1 1 1 1 1 1 1
0 0 1 1 1 1 1 1 1 1 1 1 1 1 1 1 1 1 1 1 0 0 0 0 0 0 0 0 0 0 0 0 0 0 0 0 0 0 0 0 0 0 0 0
0 0 0 0 0 0 0 0 0 0 1 1 1 1 1 1 1 1 1 0 0 0 0 0 0 0 0 0 0 0 0 0 0 0 0 0 0 0 0 0 0 0 0 0
0 0 0 0 0 0 0 0 0 0 1 1 1 1 1 1 1 0 0 0 0 0 0 0 0 0 0 0 0 0 0 0 0 0 0 0 0 0 0 0 0 0 0 0
0 0 0 0 0 0 0 0 0 0 1 1 1 1 1 1 1 0 0 0 0 0 0 0 0 0 0 0 0 0 0 0 0 0 0 0 0 0 0 0 0 0 0 0
Wind_Speed
15 14 13 11 8 9 12 12 12 8 4 6 7 4 5 9 9 9 9 10 11 11 11 11 11 11 11 10 9 10 9 8 6 4 4 4 3 3 4 5 6 4 3 3
16 17 16 13 9 11 13 13 12 8 6 7 8 5 3 7 9 9 10 11 12 12 12 12 12 12 12 11 11 10 9 9 8 5 4 3 4 3 3 5 5 4 4 3
19 16 13 11 11 13 12 12 12 11 11 9 7 5 3 6 8 10 10 11 12 13 13 13 13 13 12 12 12 11 10 10 8 7 4 4 3 2 3 6 4 4 4 2
19 18 15 13 12 13 12 11 12 14 13 9 9 5 4 8 9 10 11 11 12 12 12 13 12 13 13 12 12 11 11 10 8 8 7 7 6 5 5 5 5 5 4 4
19 17 16 14 13 13 13 13 14 13 10 9 8 6 3 7 7 8 10 11 11 12 13 14 13 13 12 13 12 12 11 10 9 8 7 6 5 4 4 5 7 6 5 4
21 18 16 14 13 12 13 13 13 8 4 5 7 6 3 5 5 7 9 10 11 12 13 14 14 12 11 12 12 12 12 10 9 9 8 7 6 4 5 6 7 5 5 5
21 19 17 15 15 13 11 9 8 7 2 6 6 5 1 6 5 7 9 10 10 11 12 13 14 13 12 13 13 13 13 11 11 10 8 8 6 4 4 5 6 5 5 5
17 15 14 15 15 12 11 10 9 9 9 6 3 2 2 5 6 8 10 10 11 12 12 13 14 14 13 13 13 13 13 11 11 10 8 7 7 5 5 6 4 5 4 5
17 13 11 13 13 13 12 11 11 10 12 8 1 2 6 2 4 7 10 11 11 11 12 13 14 14 13 13 13 13 13 12 11 11 9 8 8 7 5 6 5 4 3 5
19 15 11 10 10 12 11 10 8 7 7 8 1 3 2 5 1 4 8 11 11 11 12 13 14 14 13 13 12 12 12 11 11 10 10 10 8 7 5 5 6 5 4 4
19 16 13 10 9 9 8 8 8 8 7 8 4 1 4 5 4 4 7 10 10 11 12 12 12 13 14 14 13 12 12 11 11 11 10 8 9 9 7 6 6 5 4 5
15 12 12 10 5 5 7 7 8 7 7 8 6 2 1 3 1 2 5 10 9 8 10 12 13 13 13 14 14 12 12 12 11 10 9 8 8 8 9 8 7 6 6 6
9 8 10 10 3 5 5 9 10 8 7 9 6 1 1 3 5 4 4 7 9 8 9 11 12 12 12 12 12 13 13 13 13 11 10 10 9 9 9 9 8 8 7 7
7 8 11 12 4 5 5 13 13 10 7 8 3 2 1 2 2 2 3 4 7 7 7 7 8 9 9 10 10 11 12 12 12 12 12 11 11 10 9 9 8 9 8 8
10 12 13 12 7 10 10 11 12 13 11 10 3 4 5 5 3 1 2 5 6 6 6 5 6 6 6 7 8 8 9 9 9 10 10 10 10 9 9 8 9 9 9 10
9 10 11 12 9 8 10 13 14 13 10 8 3 4 7 7 5 3 4 5 6 6 5 4 4 5 4 4 5 6 5 5 6 6 7 7 8 8 8 8 8 8 8 8
8 9 10 10 9 9 11 10 8 8 6 4 1 5 8 8 7 6 6 6 7 7 7 6 5 5 3 2 3 3 3 4 4 4 4 4 6 7 7 8 7 7 7 7
9 8 7 9 8 11 4 2 4 3 2 2 6 7 9 11 10 10 9 9 9 9 8 7 7 7 5 5 5 4 4 4 3 3 2 1 2 4 5 5 5 4 4 5
8 8 8 7 9 8 4 4 5 3 3 5 7 9 10 12 13 12 11 11 11 11 11 10 10 10 10 9 8 7 7 7 7 6 5 5 3 1 2 2 3 3 3 3
10 8 9 8 8 4 2 2 2 2 2 6 6 8 10 9 7 7 10 11 12 12 11 11 12 13 12 10 10 10 9 9 8 7 7 7 7 6 4 3 2 1 1 2
12 11 11 10 6 2 4 2 1 1 2 4 5 6 7 8 10 11 12 11 12 12 12 12 12 12 12 11 11 11 11 10 8 7 7 7 7 5 5 4 3 2 1 1
5 4 6 6 5 2 6 4 5 4 4 4 7 10 13 15 16 14 13 12 12 12 12 12 11 11 11 11 11 11 11 9 9 8 8 7 7 5 5 4 3 3 2 3
3 3 3 3 4 5 5 6 4 4 5 6 9 12 15 16 15 14 13 12 12 12 11 11 11 11 10 10 10 10 8 7 8 8 7 6 5 4 4 3 3 2 2 2
1 2 1 4 6 4 5 6 6 7 6 8 11 12 14 15 15 14 12 11 11 11 10 10 10 10 9 9 9 8 7 6 6 5 4 3 3 3 3 3 3 3 3 3
1 1 2 6 5 5 9 8 6 6 7 10 11 13 14 15 15 14 12 10 10 10 9 9 9 8 8 8 8 8 7 7 6 5 4 3 3 2 2 1 1 1 1 0
6 6 5 5 4 5 6 5 5 7 10 12 14 15 15 14 14 13 11 10 10 10 9 8 8 8 7 7 7 6 6 7 7 6 6 5 4 3 3 2 2 1 3 4
Wind_Direction
247 247 257 269 278 296 301 308 316 318 309 294 289 263 200 176 181 176 176 177 178 184 180 166 165 166 161 164 158 154 150 147 146 145 153 151 155 159 136 133 137 143 128 104
252 249 257 272 290 290 292 303 307 307 297 279 286 281 206 171 182 179 183 183 183 183 177 169 170 170 170 168 160 156 156 158 160 156 160 159 153 171 150 131 142 154 149 163
245 256 259 265 278 284 291 300 308 308 300 287 284 263 192 180 180 179 186 184 183 181 178 177 176 172 173 169 166 166 161 162 164 159 164 159 146 193 147 136 159 169 160 154
253 260 266 269 273 282 293 302 305 305 304 313 319 295 198 185 186 186 185 182 180 178 176 174 177 175 176 174 170 163 161 162 162 169 175 173 177 191 171 161 160 167 174 171
255 259 262 266 273 283 294 305 303 306 319 318 316 303 220 182 178 181 180 180 175 175 174 174 180 180 178 175 171 164 163 165 164 177 180 182 187 190 167 156 148 167 174 183
263 268 271 271 275 278 285 292 293 301 349 296 270 259 234 158 174 170 165 167 170 174 172 172 176 175 176 175 170 162 164 168 170 183 182 191 203 192 161 158 158 181 172 182
253 261 268 273 272 274 276 286 294 303 256 249 242 249 187 129 147 143 150 155 161 166 168 168 171 173 175 174 170 165 168 173 178 186 185 189 198 194 177 178 176 195 183 179
247 248 247 251 255 264 269 270 279 299 301 308 311 299 76 105 117 126 139 148 158 164 166 166 169 171 175 174 172 170 171 176 182 186 188 184 188 195 197 201 197 199 210 175
252 253 241 238 238 250 262 268 284 286 290 298 303 43 3 355 123 135 143 151 158 162 165 165 166 170 173 175 174 174 173 178 185 187 184 187 192 207 208 177 200 204 189 152
249 261 252 239 241 241 253 278 291 292 301 302 12 64 246 300 299 150 154 151 156 160 165 164 166 171 174 177 177 176 176 181 185 185 186 190 193 199 202 188 198 211 180 158
238 251 256 239 240 258 250 250 276 287 292 300 313 127 207 222 212 180 161 147 152 164 167 165 166 169 173 176 176 178 178 181 186 192 193 191 186 193 195 199 201 197 181 166
234 241 256 258 267 301 288 275 261 264 280 287 299 109 302 330 310 147 128 130 138 158 164 163 165 168 173 177 178 181 184 186 189 192 189 192 190 190 194 198 197 189 188 185
240 235 250 250 258 353 313 294 288 273 270 273 288 82 44 10 3 25 86 123 136 152 159 158 161 168 175 178 180 183 189 191 191 191 192 192 197 197 197 197 193 190 189 194
260 240 248 261 216 166 251 276 287 284 268 273 255 194 157 40 358 5 88 115 138 143 145 152 156 164 172 176 177 181 187 190 193 192 193 194 197 199 199 198 194 191 191 198
239 237 242 256 208 184 205 238 250 259 262 272 244 160 152 153 131 95 115 135 132 129 131 135 141 150 161 168 173 179 182 184 190 189 191 195 195 196 198 200 198 194 195 202
235 247 251 258 238 206 214 226 232 244 257 263 255 115 111 109 102 76 68 87 100 105 106 106 112 120 130 153 164 166 171 174 172 178 184 185 187 190 195 198 197 194 197 203
245 231 242 255 259 247 239 239 250 256 262 277 236 113 114 102 91 79 77 72 69 78 73 65 57 57 73 113 132 140 145 143 144 157 170 173 176 185 189 197 196 198 197 201
260 242 232 246 252 252 267 328 329 316 297 76 92 103 105 101 90 75 67 68 63 60 62 61 64 63 55 55 66 65 69 77 91 106 108 114 159 189 188 185 184 190 191 202
257 248 237 240 244 243 283 349 8 356 13 58 96 106 106 108 100 79 69 71 69 65 62 57 59 59 56 56 61 70 60 59 58 56 51 41 38 52 147 175 186 179 183 197
235 242 244 233 243 244 173 57 352 19 58 44 87 115 122 123 104 94 86 81 75 68 63 59 61 61 55 52 60 65 61 59 55 48 54 51 47 39 40 43 41 34 234 230
217 213 225 235 237 105 67 117 129 128 91 43 67 93 111 101 105 112 100 90 83 77 71 66 63 59 52 47 53 57 54 49 49 52 54 53 52 52 51 38 18 10 351 310
279 241 227 237 229 101 35 52 67 85 79 78 90 102 103 103 108 108 102 95 89 83 78 73 67 62 54 51 56 57 50 43 42 42 46 46 44 39 39 37 12 354 347 317
338 338 356 27 73 80 69 78 98 105 97 100 100 104 111 114 114 110 105 99 91 86 82 79 77 71 62 56 57 57 47 43 45 43 36 32 37 41 30 16 0 341 338 330
250 250 157 99 105 100 80 72 61 69 81 89 99 108 112 114 112 109 103 97 91 86 83 81 77 73 65 59 60 59 52 47 48 45 34 22 29 33 30 5 360 359 357 2
208 88 90 85 86 92 64 55 58 76 86 94 100 105 108 110 108 106 101 96 93 87 80 77 76 76 73 64 56 49 40 31 27 19 8 359 12 23 348 332 325 323 338 265
45 44 62 75 60 71 77 68 83 90 88 93 96 94 95 99 100 97 94 90 87 85 81 77 75 73 73 69 63 51 38 26 15 8 358 351 354 1 348 334 330 285 255 223